TimeEST,TemperatureF,Dew PointF,Humidity,Sea Level PressureIn,VisibilityMPH,Wind Direction,Wind SpeedMPH,Gust SpeedMPH,PrecipitationIn,Events,Conditions,WindDirDegrees,DateUTC
12:54 AM,23.0,16.0,74,30.46,10.0,Calm,Calm,-,N/A,,Clear,0,2013-01-18 05:54:00
1:54 AM,21.9,15.1,75,30.46,10.0,Calm,Calm,-,N/A,,Clear,0,2013-01-18 06:54:00
2:54 AM,21.0,16.0,81,30.50,10.0,WSW,3.5,-,N/A,,Clear,250,2013-01-18 07:54:00
3:54 AM,19.9,16.0,85,30.50,10.0,SW,3.5,-,N/A,,Clear,230,2013-01-18 08:54:00
4:54 AM,19.9,15.1,81,30.48,10.0,SW,5.8,-,N/A,,Clear,230,2013-01-18 09:54:00
5:54 AM,19.0,16.0,88,30.50,10.0,SSW,4.6,-,N/A,,Clear,210,2013-01-18 10:54:00
6:54 AM,19.0,15.1,85,30.51,10.0,SW,5.8,-,N/A,,Clear,220,2013-01-18 11:54:00
7:54 AM,21.0,16.0,81,30.50,10.0,Calm,Calm,-,N/A,,Partly Cloudy,0,2013-01-18 12:54:00
8:54 AM,21.9,18.0,85,30.51,10.0,SSW,4.6,-,N/A,,Partly Cloudy,210,2013-01-18 13:54:00
9:54 AM,27.0,19.9,75,30.52,10.0,SSW,5.8,-,N/A,,Partly Cloudy,210,2013-01-18 14:54:00
10:54 AM,30.9,18.0,59,30.52,10.0,South,12.7,-,N/A,,Partly Cloudy,190,2013-01-18 15:54:00
11:54 AM,33.1,18.0,54,30.48,10.0,South,12.7,-,N/A,,Partly Cloudy,190,2013-01-18 16:54:00
12:54 PM,35.1,18.0,50,30.43,10.0,SSW,13.8,-,N/A,,Partly Cloudy,200,2013-01-18 17:54:00
1:54 PM,37.0,17.1,44,30.38,10.0,South,13.8,-,N/A,,Partly Cloudy,190,2013-01-18 18:54:00
2:54 PM,39.0,17.1,41,30.35,10.0,SSW,18.4,-,N/A,,Scattered Clouds,200,2013-01-18 19:54:00
3:54 PM,39.9,18.0,41,30.32,10.0,South,16.1,-,N/A,,Scattered Clouds,180,2013-01-18 20:54:00
4:54 PM,39.0,19.0,45,30.29,10.0,South,13.8,-,N/A,,Scattered Clouds,190,2013-01-18 21:54:00
5:54 PM,37.0,19.0,48,30.27,10.0,South,16.1,-,N/A,,Scattered Clouds,190,2013-01-18 22:54:00
6:54 PM,37.0,19.9,50,30.26,10.0,South,17.3,-,N/A,,Partly Cloudy,180,2013-01-18 23:54:00
7:54 PM,37.9,21.0,51,30.25,10.0,South,15.0,24.2,N/A,,Clear,180,2013-01-19 00:54:00
8:54 PM,37.0,21.9,54,30.22,10.0,South,17.3,-,N/A,,Clear,190,2013-01-19 01:54:00
9:54 PM,37.0,23.0,57,30.20,10.0,SSW,17.3,27.6,N/A,,Clear,200,2013-01-19 02:54:00
10:54 PM,37.0,24.1,59,30.17,10.0,SSW,18.4,-,N/A,,Clear,200,2013-01-19 03:54:00
11:54 PM,37.0,23.0,57,30.17,10.0,SSW,17.3,-,N/A,,Clear,200,2013-01-19 04:54:00